Location: *
(38.9555°S, 57.3572°E)
Time: 01:42:36
(UTC+00:00)

Cosmos 1709 Rocket - Pass Details

Date: 15 July 2020
Orbit: 948 x 1001 km, 82.9° (Epoch: 06 August)

Event Time Altitude Azimuth Distance (km) Brightness Sun altitude
Rises 15:25:25 0° 187° (S) 3,669 7.0 -26.3°
Reaches altitude 10° 15:27:55 10° 185° (S) 2,722 6.3 -26.8°
Maximum altitude 15:34:10 82° 97° (E) 989 3.8 -28.0°
Drops below altitude 10° 15:40:26 10° 9° (N) 2,724 6.3 -29.2°
Sets 15:42:57 0° 7° (N) 3,671 7.0 -29.7°
